Flag for U.S.A. Weather past 2 weeks in Fort Lauderdale, Florida, U.S.A.

Now
83 °F

Passing clouds.


Feels Like: 90 °F
Forecast: 80 / 88 °F
Wind: No wind

Location: Fort Lauderdale / Hollywood International Airport

Current Time: Aug 5, 2015 at 3:34:56 AM

Latest Report: Aug 5, 2015 at 2:53 AM


Visibility: 10 mi

Pressure: 30.07 "Hg

Humidity: 77%

Dew point: 75 °F

Location of Fort LauderdaleLocation

Historic Weather in Fort Lauderdale — Graph

°F

Fort Lauderdale temperature yesterday

Maximum temperature yesterday: 90 °F (at 1:53 PM)
Minimum temperature yesterday: 78 °F (at 1:53 AM)
Average temperature yesterday: 84 °F

Past Weeks' High & Low Weather Summary

 TemperatureHumidityPressure
High95 °F (Jul 24, 2:53 PM)100% (Jul 25, 7:53 PM)30.09 "Hg (Jul 25, 7:53 PM)
Low75 °F (Aug 2, 6:53 PM)44% (Jul 24, 2:53 PM)29.88 "Hg (Jul 26, 4:53 AM)
Average83 °F75%29.99 "Hg
* Reported Jul 21 1:53 AM — Aug 5 1:53 AM, Fort Lauderdale, Weather by CustomWeather, © 2015

Note: Actual official high and low records may vary slightly from our data, if they occured in-between our weather recording intervals... More about our weather records

Advertising

Fort Lauderdale weather history for previous 24 hours

 ConditionsComfort  
Time TempWeatherWind HumidityBarometerVisibility
1:53 AM
Wed, Aug 5
83 °FPassing clouds.3 mph77%30.08 "Hg10 mi
12:53 AM84 °FPassing clouds.6 mph77%30.08 "Hg10 mi
11:53 PM
Tue, Aug 4
84 °FPassing clouds.6 mph77%30.08 "Hg10 mi
10:53 PM85 °FPassing clouds.9 mph72%30.09 "Hg10 mi
9:53 PM84 °FPassing clouds.8 mph77%30.09 "Hg10 mi
8:53 PM85 °FScattered clouds.9 mph75%30.07 "Hg10 mi
7:53 PM85 °FScattered clouds.7 mph72%30.05 "Hg10 mi
6:53 PM87 °FScattered clouds.8 mph63%30.03 "Hg10 mi
5:53 PM88 °FScattered clouds.9 mph65%30.03 "Hg10 mi
4:53 PM89 °FScattered clouds.8 mph61%30.03 "Hg10 mi
3:53 PM89 °FScattered clouds.12 mph63%30.04 "Hg10 mi
2:53 PM90 °FPassing clouds.12 mph61%30.04 "Hg10 mi
1:53 PM90 °FPassing clouds.9 mph61%30.06 "Hg10 mi
12:53 PM89 °FPassing clouds.8 mph63%30.06 "Hg10 mi
11:53 AM89 °FScattered clouds.8 mph65%30.06 "Hg10 mi
10:53 AM88 °FBroken clouds.8 mph65%30.06 "Hg10 mi
9:53 AM86 °FPartly sunny.7 mph72%30.04 "Hg10 mi
8:53 AM84 °FPassing clouds.3 mph80%30.04 "Hg10 mi
7:53 AM82 °FPassing clouds.No wind85%30.03 "Hg10 mi
6:53 AM79 °FPassing clouds.No wind90%30.02 "Hg10 mi
5:53 AM79 °FPassing clouds.No wind88%30.01 "Hg10 mi
4:53 AM79 °FPassing clouds.No wind88%30.00 "Hg10 mi
3:53 AM78 °FClear.No wind87%30.00 "Hg10 mi
Weather by CustomWeather, © 2015

See weather overviewHow to use our weather pages